Location: Orangeville
(43.9200°N, 80.0943°W)
Time: 09:14:51
(UTC-05:00)

ISS - Pass Details

Date: 28 November 2021
Orbit: 413 x 422 km, 51.6° (Epoch: 24 January)

Event Time Altitude Azimuth Distance (km) Brightness Sun altitude
Rises 17:57:19 0° 287° (WNW) 2,382 1.1 -12.8°
Reaches altitude 10° 17:59:45 10° 303° (WNW) 1,515 -0.4 -13.2°
Maximum altitude 18:02:28 22° 356° (N) 991 -2.0 -13.7°
Enters shadow 18:03:46 18° 28° (NNE) 1,131 -2.0 -13.9°
